125  
ASUS41 KAKQ 150515  
RWRAKQ  
 
REGIONAL WEATHER ROUNDUP  
NATIONAL WEATHER SERVICE WAKEFIELD VA  
100 AM EDT SUN SEP 15 2019  
 
NOTE: "FAIR" INDICATES FEW OR NO CLOUDS BELOW 12,000 FEET WITH NO  
SIGNIFICANT WEATHER AND/OR S TO VISIBILITY
. * = DENOTES  
STATION MAY NOT REPORT PRECIPITATION (E.G., RAIN,SNOW,ETC.),
 
THUNDER OR FOG.  
 
VAZ042-051-052>054-056-150600-  
NORTHERN VIRGINIA  
 
CITY SKY/WX TMP DP RH WIND PRES REMARKS
 
WASH NATIONAL CLOUDY 75 69 81 S6 30.16S  
DULLES MOCLDY 71 67 87 CALM 30.16S  
FORT BELVOIR FAIR 71 69 93 CALM 30.15S  
QUANTICO FAIR 77 71 82 S12 30.16S  
FREDERICKSBRG* FAIR 73 71 93 CALM 30.15S  
STAFFORD* FAIR 71 71 100 CALM 30.19F  
WARRENTON FAIR 70 66 88 CALM 30.15S  
CULPEPER* FAIR 69 67 95 CALM 30.17S  
MANASSAS* FAIR 70 69 97 CALM 30.16S  
LEESBURG* FAIR 68 68 100 CALM 30.17S  
WINCHESTER FAIR 64 64 100 CALM 30.16F FOG  
FRONT ROYAL* FAIR 70 68 94 SW3 30.16F  
LURAY* FAIR 68 66 94 CALM 30.18S  

 
 
VAZ048-049-060>072-079>083-150600-  
CENTRAL AND SOUTH CENTRAL VIRGINIA  
 
CITY SKY/WX TMP DP RH WIND PRES REMARKS
 
RICHMOND CLOUDY 73 70 90 SE5 30.17S  
CHESTERFIELD* MOCLDY 70 68 93 S3 30.18S  
PETERSBURG* FAIR 72 68 87 CALM 30.18S  
HANOVER MOCLDY 70 66 87 CALM 30.18S  
TAPPAHANNOCK* FAIR 72 72 100 CALM 30.18S  
QUINTON* CLOUDY 72 72 100 CALM 30.17S  
CHARLOTTSVILLE FAIR 71 67 87 CALM 30.17S  
GORDONSVILLE* FAIR 68 68 100 CALM 30.16S  
ORANGE* FAIR 68 66 94 CALM 30.17S FOG  
LOUISA* FAIR 66 66 99 CALM 30.21S  
BUMPASS* MOCLDY 71 70 95 CALM 30.17S  
FARMVILLE* FAIR 69 69 99 CALM 30.17S  
CREWE* FAIR 67 64 91 CALM 30.18S  
FORT PICKETT* CLOUDY 71 71 100 CALM 30.18S  
CHASE CITY* FAIR 69 67 93 CALM 30.18F  
CLARKSVILLE* FAIR 70 70 100 CALM 30.18S  
SOUTH HILL* CLOUDY 72 71 97 CALM 30.24S  
LAWRENCEVILLE* FAIR 72 71 96 CALM 30.19S  
EMPORIA* FAIR 72 70 96 CALM 30.19S  

 
 
VAZ088>098-150600-  
SOUTHEAST VIRGINIA  
 
CITY SKY/WX TMP DP RH WIND PRES REMARKS
 
NORFOLK FAIR 75 72 90 CALM 30.17S  
VIRGINIA BEACH CLOUDY 71 70 96 CALM 30.17S  
NORFOLK NAVAL CLOUDY 71 71 100 CALM 30.19S  
WEST POINT* CLOUDY 74 72 92 CALM 30.19S  
SALUDA* CLOUDY 74 74 100 S3 30.18R  
NEWPORT NEWS CLOUDY 71 69 93 CALM 30.18S  
LANGLEY AFB CLEAR 74 74 100 CALM 30.17F  
FORT EUSTIS CLOUDY 76 68 76 S8 30.15S  
WILLIAMSBURG* FAIR 77 72 83 CALM 30.18F  
HR EXEC AP* FAIR 66 64 94 CALM 30.18S FOG  
FRANKLIN* FAIR 69 69 98 CALM 30.18S  
US460-WAKEFLD FAIR 72 70 93 CALM 30.17S  

 
 
VAZ020-022-025-037-045-150600-  
WEST CENTRAL AND SOUTHWEST VIRGINIA  
 
CITY SKY/WX TMP DP RH WIND PRES REMARKS
 
STAUNTON* FAIR 68 66 93 CALM 30.22S  
WAYNESBORO* FAIR 69 69 99 CALM 30.22S  
HOT SPRINGS VA FAIR 63 61 94 CALM 30.32F  
LYNCHBURG FAIR 68 68 100 CALM 30.19F  
DANVILLE CLOUDY 73 70 90 CALM 30.18F  
SOUTH BOSTON* FAIR 70 69 96 CALM 30.17F  
MARTINSVILLE FAIR 66 66 100 CALM 30.22F FOG  
ROANOKE FAIR 70 69 97 CALM 30.22F FOG  
BLACKSBURG FAIR 66 66 100 CALM 30.28S  
DUBLIN* FAIR 65 65 99 CALM 30.26S  
MARION* FAIR 64 64 100 CALM 30.30S FOG  
HILLSVILLE* CLOUDY 67 66 96 CALM 30.26F FOG  
RICHLANDS* FAIR 64 63 97 CALM 30.29F  
WISE* FAIR 64 52 63 CALM 30.30F  
ABINGDON* FAIR 65 65 97 CALM 30.25F  

 
 
MDZ021>025-VAZ099-100-150600-  
SOUTHERN MARYLAND AND THE DELMARVA PENINSULA  
 
CITY SKY/WX TMP DP RH WIND PRES REMARKS
 
PATUXENT RIVER CLOUDY 75 71 87 S6 30.16F  
BAY BRIDGE APT CLOUDY 75 72 88 S6 30.16R  
LEONARDTOWN N/A 72 70 94 CALM 30.18F  
DOVER CLOUDY 73 68 83 S8 30.16F  
GEORGETOWN CLOUDY 72 70 93 S5 30.18F  
EASTON CLOUDY 76 72 87 S5 30.20S  
CAMBRIDGE CLOUDY 73 72 94 SE6 30.17S  
SALISBURY CLOUDY 71 68 90 S3 30.18F  
TANGIER CLOUDY 75 73 94 S6 30.18R  
OCEAN CITY MOCLDY 73 71 93 CALM 30.19S  
WALLOPS ISLAND MOCLDY 73 71 93 S6 30.19S  
ACCOMACK* CLOUDY 72 71 98 SE3 30.18S  

 
 
NCZ012>017-030>032-150600-  
NORTH CENTRAL AND EASTERN NORTH CAROLINA  
 
CITY SKY/WX TMP DP RH WIND PRES REMARKS
 
ROANOKE RAPIDS NOT AVBL  
RALEIGH FAIR 70 68 93 CALM 30.17F  
ELIZABETH CITY FAIR 75 72 90 N5 30.17R  
AHOSKIE* FAIR 68 68 100 E3 30.17F  
EDENTON* MOCLDY 73 73 98 N3 30.17S  
CURRITUCK* NOT AVBL  
KILL DEVIL HLS FAIR 75 73 93 SE3 30.15R  
MANTEO NOT AVBL  
CAPE HATTERAS FAIR N/A N/A N/A SE5 30.14F  
TARBORO* FAIR 69 69 99 CALM 30.16F  
GOLDSBORO NOT AVBL  
WASHINGTON NOT AVBL  
GREENVILLE NOT AVBL  
NEW BERN FAIR 74 73 97 E6 30.14F  
WILMINGTON FAIR 76 72 87 N3 30.13F  

 
 
VAZ048-150600-  
ELSEWHERE  
 
CITY SKY/WX TMP DP RH WIND PRES REMARKS
 
HARRISBURG PA FAIR 65 63 93 NW5 30.16S  
BALTIMORE CLOUDY 75 69 81 S3 30.15S  
ANNAPOLIS CLOUDY 78 68 71 VRB5 30.15S  
ANDREWS AFB FAIR 71 67 88 S6 30.15F  
PHILADELPHIA HVY RAIN 72 69 90 W13 30.17S FOG  
GREENSBORO FAIR 72 70 93 CALM 30.19S  
ROCKY MOUNT FAIR 71 70 96 CALM 30.17F  

 
 
VAZ100-150600-  
MARINE  
 
STATION/POSITION TIME TEMP WIND PRES WAVE SWELL
 
AIR SEA DIR/SP/G HT/PER HT/PER  
(UTC) (F) (DEG/KT/KT) (MB) (FT/S) (FT/S)  
CAPE MAY NJ 0430 73 74 170/ 2/ 4 1021.5F  
LEWES DE 0430 73 74 190/ 4/ 6 1021.9F  
15NM E FENWICK I 0450 72 72 160/ 6/ 8 1022.0S 5/10 5/10  
OCEAN-CITY-INLET 0418 75 75 200/ 7/ 9 1022.9  
44089 WALLOPS IS 0500 76 N/A 4/ 9 2/11  
WACHAPREAGUE VA 0430 75 77 200/ 4/ 5 1021.9S  
THOMAS POINT MD 0500 76 76 170/ 12/ 13 1022.0R  
GOOSES REEF MD 0454 76 190/ 12/ 14 1022.1F  
COVE POINT MD 0430 75 190/ 11/ 13 1022.1F  
SOLOMONS ISLAND 0430 75 77 200/ 6/ 7 1021.2F  
BISHOPS HEAD MD 0418 76 77 180/ 10/ 12 1022.1  
PINEY POINT MD 0430 190/ 7/ 9 N/A  
POTOMAC MD 0454 76 77 190/ 10/ 10 1024.1F  
CAMBRIDGE MD 0418 75 77 150/ 5/ 7 1021.4  
LEWISETTA VA 0418 75 76 200/ 7/ 8 1021.6  
RAPPAHANNOCK LGT 0430 160/ 7/ 8 1022.8S  
STINGRAY PT 0342 77 78 200/ 10/ 12 1025.7  
YORK RVR RNG VA 0430 77 210/ 7/ 8 1022.4S  
YORKTOWN VA 0430 75 79 160/ 2/ 3 1021.5S  
JAMESTOWN VA 0454 75 81 1022.1S  
DOMINION TERM VA 0418 76 170/ 5/ 6 1022.0  
KIPTOPEKE VA 0418 78 140/ 3/ 4 N/A  
CAPE HENRY VA 0430 75 140/ 4/ 5 1021.8F  
WILLOUBY STN VA 0418 75 170/ 4/ 5 1021.3  
S CRANEY ISL VA 0430 76 180/ 3/ 4 1021.6F  
CAPE HENRY BUOY 0500 76 N/A 4/11 2/11  
1ST LANDING BUOY 0450 76 150/ 4/ 4 1021.5S  
64NM E OF VA BCH 0450 75 74 110/ 4/ 4 1022.2R 5/10 5/10  
DUCK PIER NC 0430 77 120/ 8/ 9 1021.0F  
44100 DUCK FRF 0500 77 N/A 5/10 2/11  
44056 DUCK FRF 0500 78 N/A 4/ 8 2/11  
OREGON INLET NC 0418 75 78 90/ 9/ 14 1021.0  
HATTERAS NC 0418 77 79 120/ 3/ 4 1020.8  
DIAMOND SHLS NC 0450 80 77 120/ 8/ 12 1020.5F 5/ 9 5/ 9  
CAPE LOOKOUT NC 0400 80 100/ 7/ 8 1020.7F  

 
 
 
CLICK HERE TO GO TO PREVIOUS BULLETINS.

The Nexlab VA Page
The Nexlab NC Page
The Nexlab MD Page Main Text Page